Location: Home
(42.5358°N, 72.7383°W)
Time: 23:58:36
(UTC-05:00)

Vanguard 1 - Pass Details

Date: 02 December 2021
Orbit: 652 x 3830 km, 34.2° (Epoch: 21 January)

Event Time Altitude Azimuth Distance (km) Brightness Sun altitude
Rises 06:24:52 0° 283° (WNW) 7,576 - -7.0°
Exits shadow 06:27:55 - 279° (W) 6,909 13.7 -6.5°
Reaches altitude 10° 06:31:20 10° 275° (W) 6,153 13.5 -5.9°
Maximum altitude 06:45:18 30° 223° (SW) 3,513 12.7 -3.6°
Drops below altitude 10° 06:54:13 10° 167° (SSE) 3,855 13.8 -2.1°
Sets 06:57:13 0° 156° (SSE) 4,467 14.4 -1.7°
